Tracking 19638 objects as of 19-May-2019
HD Live streaming from Space Station
objects crossing your sky now

FLOCK 3P 71

Track FLOCK 3P 71 now!
10-day predictions
FLOCK 3P 71 is classified as:


NORAD ID: 42024
Int'l Code: 2017-008CE
Perigee: 489.6 km
Apogee: 498.1 km
Inclination: 97.4 °
Period: 94.3 minutes
Semi major axis: 6864 km
RCS: Unknown
Launch date: February 15, 2017
Source: United States (US)
Launch site: SRIHARIKOTA (SRI)
aabbcc
Your satellite tracking list
Your tracking list is empty




NASA's NSSDC Master Catalog

Two Line Element Set (TLE):
1 42024U 17008CE  19138.73901288  .00002519  00000-0  99689-4 0  9990
2 42024  97.4088 206.5563 0006184 249.3736 110.6839 15.26372500124130
Source of the keplerian elements: AFSPC